CZ-6A DEB, 54628

Orbit data source: Space-Track

CZ-6A DEB, 54628 is space debris in SSO originally from a launch on Fri, 11 Nov 2022 UTC launched from the Taiyaun Space Center, China (TSC). Debris objects in space refer to the collection of defunct objects orbiting the Earth. Examples of debris include non-operational satellites, rocket bodies, and fragments generated from explosions, collisions, or faulty payload assembly.

Loading next visibility...
Identifier
54628, 2022-151PE
Orbit
SSO
Country
Flag of CNCN / PRC
Related business
Manufacturer
SAST
Mission
Spacecraft
Bus & Motor
Unknown
Mass
Unknown
Launch date (UTC)
2022-11-11 (4 years ago)
Launch vehicle
Unknown
Launch site
Taiyaun Space Center, China (TSC)
Object type
Payload
Rocket body
Debris
Shape & HBR
Unknown shape, 0.1 m
Radar Cross Section
Medium (>0.1 m² and <1 m²)

Expand to show TLE details & history
Last TLE update: 22 hours ago

TLE from 22 hours ago
0 CZ-6A DEB
1 54628U 22151PE  26236.24682771  .00000279  00000-0  26758-3 0  9991
2 54628  98.9479 178.0949 0184239 337.5257  21.7901 13.81046490189330
Epoch: 2026-08-24T05:55Z
TLE epoch observation values (Epoch: 2026-08-24T05:55:25.914Z)
Latitude
-0.00004°
Longitude
116.70566°
Altitude
837.82 km
Speed
7.497 km/s
True Right ascension
11h 52m 22s
True Declination
0° 00' 00"
Sunlit
Object was in daylight at epoch
Visualization orbit readout
Latitude
Unknown
Longitude
Unknown
Altitude
Unknown
Speed
Unknown
Apparent Right ascension
Unknown
Apparent Declination
Unknown
Sunlit
N/A
Visualization observer readout
Local Sidereal Time
19:33:23
Azimuth
Unknown
Elevation
Unknown
Doppler factor
Unknown
Orbital elements
Apogee altitude
1,092.547 km
Perigee altitude
822.249 km
Semi-major axis
7,335.535 km
Eccentricity
0.01842
Inclination
98.9479°
RAAN
178.0949°
Arg. of periapsis
337.5257°
True anomaly
22.59089°
Mean anomaly
21.7901°
Eccentric anomaly
22.18876°
Mean motion
3.45458 °/min
Orbital period
104.21 mins
BSTAR
0.00026758
Loading maneuver chart data...
Computing Atmospheric mass density...
Loading historical data...
Loading historical data...
Loading historical data...
Loading historical data...
Loading historical data...
Loading historical data...
Loading historical data...

Documentation

Showing up to 5 results
|